| time (UTC) | temp F | wind direction | speed MPH | gust MPH | rain 1hr in | rain 24hr in | rain mn in | humidity % | barometer mb |
| 20260902211120 | 70 | 308 | 0.0 | 0.0 | 0.00 | 0.00 | 0.00 | 89 | 1018.6 |
| 20260902210619 | 69 | 325 | 0.0 | 0.0 | 0.00 | 0.00 | 0.00 | 88 | 1018.8 |
| 20260902210115 | 70 | 210 | 0.0 | 0.0 | 0.00 | 0.00 | 0.00 | 89 | 1018.8 |
| 20260902205613 | 70 | 316 | 0.0 | 0.0 | 0.00 | 0.00 | 0.00 | 89 | 1018.7 |
| 20260902205108 | 70 | 292 | 0.0 | 0.0 | 0.00 | 0.00 | 0.00 | 89 | 1018.5 |
| 20260902204603 | 70 | 306 | 0.0 | 0.0 | 0.00 | 0.00 | 0.00 | 90 | 1018.6 |
| 20260902204057 | 70 | 333 | 0.0 | 0.0 | 0.00 | 0.00 | 0.00 | 90 | 1018.7 |
| 20260902203553 | 70 | 265 | 0.0 | 0.0 | 0.00 | 0.00 | 0.00 | 91 | 1018.6 |
| 20260902203052 | 70 | 290 | 0.0 | 0.0 | 0.00 | 0.00 | 0.00 | 90 | 1019.1 |
| 20260902202548 | 70 | 79 | 0.0 | 0.0 | 0.00 | 0.00 | 0.00 | 90 | 1018.8 |
| 20260902202045 | 70 | 222 | 0.0 | 0.0 | 0.00 | 0.00 | 0.00 | 90 | 1019.0 |
| 20260902201540 | 70 | 274 | 0.0 | 0.0 | 0.00 | 0.00 | 0.00 | 90 | 1019.0 |
| 20260902201039 | 70 | 285 | 0.0 | 0.0 | 0.00 | 0.00 | 0.00 | 90 | 1019.0 |
| 20260902200534 | 70 | 290 | 0.0 | 0.0 | 0.00 | 0.00 | 0.00 | 90 | 1019.0 |
| 20260902200031 | 70 | 304 | 0.0 | 0.0 | 0.00 | 0.00 | 0.00 | 90 | 1019.0 |
| 20260902195526 | 70 | 275 | 0.0 | 0.0 | 0.00 | 0.00 | 0.00 | 90 | 1019.0 |
| 20260902195024 | 70 | 291 | 0.0 | 0.0 | 0.00 | 0.00 | 0.00 | 90 | 1019.0 |
| 20260902194519 | 70 | 320 | 0.0 | 0.0 | 0.00 | 0.00 | 0.00 | 90 | 1019.3 |
| 20260902194014 | 70 | 12 | 0.0 | 0.0 | 0.00 | 0.00 | 0.00 | 90 | 1019.3 |
| 20260902193510 | 70 | 70 | 0.0 | 0.0 | 0.00 | 0.00 | 0.00 | 90 | 1019.0 |
| 20260902193009 | 70 | 312 | 0.0 | 0.0 | 0.00 | 0.00 | 0.00 | 91 | 1019.2 |
| 20260902192507 | 70 | 295 | 0.0 | 0.0 | 0.00 | 0.00 | 0.00 | 91 | 1019.2 |
| 20260902192006 | 70 | 306 | 0.0 | 0.0 | 0.00 | 0.00 | 0.00 | 89 | 1019.1 |
| 20260902191502 | 70 | 260 | 0.0 | 0.0 | 0.00 | 0.00 | 0.00 | 89 | 1019.3 |
| 20260902190956 | 71 | 310 | 0.0 | 0.0 | 0.00 | 0.00 | 0.00 | 84 | 1019.4 |
| 20260902190453 | 71 | 316 | 0.0 | 0.0 | 0.00 | 0.00 | 0.00 | 84 | 1019.1 |
| 20260902185948 | 71 | 289 | 0.0 | 0.0 | 0.00 | 0.00 | 0.00 | 84 | 1019.0 |
| 20260902185444 | 71 | 318 | 0.0 | 0.0 | 0.00 | 0.00 | 0.00 | 84 | 1019.0 |
| 20260902184938 | 71 | 255 | 0.0 | 0.0 | 0.00 | 0.00 | 0.00 | 84 | 1018.9 |
| 20260902184434 | 71 | 274 | 0.0 | 0.0 | 0.00 | 0.00 | 0.00 | 84 | 1019.0 |
| 20260902183929 | 71 | 322 | 0.0 | 0.0 | 0.00 | 0.00 | 0.00 | 84 | 1019.1 |
| 20260902183425 | 71 | 259 | 0.0 | 0.0 | 0.00 | 0.00 | 0.00 | 83 | 1019.0 |
| 20260902182921 | 72 | 358 | 0.0 | 0.0 | 0.00 | 0.00 | 0.00 | 83 | 1019.0 |
| 20260902182417 | 72 | 348 | 0.0 | 0.0 | 0.00 | 0.00 | 0.00 | 83 | 1019.1 |
| 20260902181913 | 72 | 348 | 0.0 | 0.0 | 0.00 | 0.00 | 0.00 | 82 | 1019.4 |
| 20260902181409 | 72 | 290 | 0.0 | 0.0 | 0.00 | 0.00 | 0.00 | 82 | 1019.2 |
| 20260902180903 | 72 | 264 | 0.0 | 0.0 | 0.00 | 0.00 | 0.00 | 81 | 1019.2 |
| 20260902180358 | 72 | 294 | 0.0 | 0.0 | 0.00 | 0.00 | 0.00 | 81 | 1019.2 |
| 20260902175853 | 72 | 20 | 0.0 | 0.0 | 0.00 | 0.00 | 0.00 | 81 | 1019.3 |
| 20260902175348 | 72 | 355 | 0.0 | 0.0 | 0.00 | 0.00 | 0.00 | 81 | 1019.5 |
| 20260902174844 | 72 | 216 | 0.0 | 0.0 | 0.00 | 0.00 | 0.00 | 81 | 1019.4 |
| 20260902174341 | 72 | 301 | 0.0 | 0.0 | 0.00 | 0.00 | 0.00 | 80 | 1019.5 |
| 20260902173831 | 72 | 332 | 0.0 | 0.0 | 0.00 | 0.00 | 0.00 | 79 | 1019.5 |
| 20260902173330 | 72 | 299 | 0.0 | 0.0 | 0.00 | 0.00 | 0.00 | 80 | 1019.6 |
| 20260902172825 | 72 | 313 | 0.0 | 0.0 | 0.00 | 0.00 | 0.00 | 80 | 1019.5 |
| 20260902172324 | 73 | 335 | 0.0 | 0.0 | 0.00 | 0.00 | 0.00 | 79 | 1019.4 |
| 20260902171814 | 73 | 303 | 0.0 | 0.0 | 0.00 | 0.00 | 0.00 | 79 | 1019.3 |
| 20260902171309 | 72 | 286 | 0.0 | 0.0 | 0.00 | 0.00 | 0.00 | 80 | 1019.4 |
| 20260902170806 | 72 | 293 | 0.0 | 0.0 | 0.00 | 0.00 | 0.00 | 81 | 1019.5 |
| 20260902170300 | 72 | 271 | 0.0 | 0.0 | 0.00 | 0.00 | 0.00 | 81 | 1019.7 |
| 20260902165755 | 72 | 293 | 0.0 | 0.0 | 0.00 | 0.00 | 0.00 | 81 | 1019.9 |
| 20260902165249 | 72 | 250 | 0.0 | 0.0 | 0.00 | 0.00 | 0.00 | 80 | 1020.0 |
| 20260902164744 | 72 | 286 | 0.0 | 0.0 | 0.00 | 0.00 | 0.00 | 80 | 1019.9 |
| 20260902164238 | 72 | 14 | 0.0 | 0.0 | 0.00 | 0.00 | 0.00 | 80 | 1020.0 |
| 20260902163733 | 71 | 291 | 0.0 | 0.0 | 0.00 | 0.00 | 0.00 | 80 | 1019.8 |
| 20260902163228 | 71 | 284 | 0.0 | 0.0 | 0.00 | 0.00 | 0.00 | 81 | 1019.9 |
| 20260902162726 | 71 | 314 | 0.0 | 0.0 | 0.00 | 0.00 | 0.00 | 79 | 1019.6 |
| 20260902162221 | 71 | 291 | 0.0 | 0.0 | 0.00 | 0.00 | 0.00 | 80 | 1019.7 |
| 20260902161716 | 72 | 311 | 0.0 | 0.0 | 0.00 | 0.00 | 0.00 | 78 | 1019.9 |
| 20260902161211 | 71 | 325 | 0.0 | 0.0 | 0.00 | 0.00 | 0.00 | 80 | 1019.8 |
| 20260902160708 | 71 | 248 | 0.0 | 0.0 | 0.00 | 0.00 | 0.00 | 79 | 1019.8 |
| 20260902160203 | 71 | 318 | 0.0 | 0.0 | 0.00 | 0.00 | 0.00 | 79 | 1019.7 |
| 20260902155701 | 71 | 328 | 0.0 | 0.0 | 0.00 | 0.00 | 0.00 | 79 | 1020.0 |
| 20260902155159 | 71 | 316 | 0.0 | 0.0 | 0.00 | 0.00 | 0.00 | 80 | 1020.0 |
| 20260902154655 | 70 | 290 | 0.0 | 0.0 | 0.00 | 0.00 | 0.00 | 80 | 1020.0 |
| 20260902154154 | 71 | 263 | 0.0 | 0.0 | 0.00 | 0.00 | 0.00 | 79 | 1020.0 |
| 20260902153649 | 71 | 292 | 0.0 | 0.0 | 0.00 | 0.00 | 0.00 | 79 | 1019.9 |
| 20260902153144 | 71 | 303 | 0.0 | 0.0 | 0.00 | 0.00 | 0.00 | 80 | 1019.9 |
| 20260902152640 | 71 | 343 | 0.0 | 0.0 | 0.00 | 0.00 | 0.00 | 79 | 1020.1 |
| 20260902152135 | 71 | 60 | 0.0 | 0.0 | 0.00 | 0.00 | 0.00 | 79 | 1020.0 |
| 20260902151630 | 70 | 317 | 0.0 | 0.0 | 0.00 | 0.00 | 0.00 | 79 | 1020.0 |
| 20260902151125 | 70 | 245 | 0.0 | 0.0 | 0.00 | 0.00 | 0.00 | 79 | 1020.1 |
| 20260902150621 | 70 | 305 | 0.0 | 0.0 | 0.00 | 0.00 | 0.00 | 79 | 1019.8 |
| 20260902150115 | 71 | 228 | 0.0 | 0.0 | 0.00 | 0.00 | 0.00 | 79 | 1019.7 |
| 20260902145610 | 71 | 288 | 0.0 | 0.0 | 0.00 | 0.00 | 0.00 | 80 | 1019.8 |
| 20260902145109 | 71 | 224 | 0.0 | 0.0 | 0.00 | 0.00 | 0.00 | 81 | 1020.0 |
| 20260902144606 | 69 | 0 | 0.0 | 0.0 | 0.00 | 0.00 | 0.00 | 82 | 1020.0 |
| 20260902144101 | 69 | 278 | 0.0 | 0.0 | 0.00 | 0.00 | 0.00 | 84 | 1020.3 |
| 20260902143556 | 69 | 286 | 0.0 | 0.0 | 0.00 | 0.00 | 0.00 | 83 | 1020.4 |
| 20260902143051 | 69 | 328 | 0.0 | 0.0 | 0.00 | 0.00 | 0.00 | 83 | 1020.4 |
| 20260902142547 | 69 | 304 | 0.0 | 0.0 | 0.00 | 0.00 | 0.00 | 84 | 1020.3 |
| 20260902142042 | 69 | 125 | 0.0 | 0.0 | 0.00 | 0.00 | 0.00 | 86 | 1020.1 |
| 20260902141541 | 69 | 320 | 0.0 | 0.0 | 0.00 | 0.00 | 0.00 | 85 | 1020.3 |
| 20260902141037 | 69 | 187 | 0.0 | 0.0 | 0.00 | 0.00 | 0.00 | 85 | 1020.1 |
| 20260902140532 | 69 | 243 | 0.0 | 0.0 | 0.00 | 0.00 | 0.00 | 85 | 1020.1 |
| 20260902140028 | 69 | 277 | 0.0 | 0.0 | 0.00 | 0.00 | 0.00 | 84 | 1019.8 |
| 20260902135526 | 69 | 309 | 0.0 | 0.0 | 0.00 | 0.00 | 0.00 | 85 | 1019.9 |
| 20260902135022 | 68 | 212 | 0.0 | 0.0 | 0.00 | 0.00 | 0.00 | 85 | 1020.2 |
| 20260902134517 | 68 | 131 | 0.0 | 0.0 | 0.00 | 0.00 | 0.00 | 87 | 1020.0 |
| 20260902134012 | 68 | 299 | 0.0 | 0.0 | 0.00 | 0.00 | 0.00 | 86 | 1019.8 |
| 20260902133507 | 68 | 248 | 0.0 | 0.0 | 0.00 | 0.00 | 0.00 | 87 | 1019.5 |
| 20260902133007 | 68 | 293 | 0.0 | 0.0 | 0.00 | 0.00 | 0.00 | 88 | 1019.4 |
| 20260902132502 | 68 | 285 | 0.0 | 0.0 | 0.00 | 0.00 | 0.00 | 89 | 1019.3 |
| 20260902131956 | 67 | 300 | 0.0 | 0.0 | 0.00 | 0.00 | 0.00 | 89 | 1019.8 |
| 20260902131453 | 68 | 318 | 0.0 | 0.0 | 0.00 | 0.00 | 0.00 | 89 | 1019.7 |
| 20260902130953 | 67 | 325 | 0.0 | 0.0 | 0.00 | 0.00 | 0.00 | 90 | 1019.7 |
| 20260902130448 | 67 | 171 | 0.0 | 0.0 | 0.00 | 0.00 | 0.00 | 90 | 1019.7 |
| 20260902125943 | 67 | 233 | 0.0 | 0.0 | 0.00 | 0.00 | 0.00 | 90 | 1019.4 |
| 20260902125440 | 67 | 273 | 0.0 | 0.0 | 0.00 | 0.00 | 0.00 | 91 | 1019.5 |
| 20260902124935 | 67 | 335 | 0.0 | 0.0 | 0.00 | 0.00 | 0.00 | 91 | 1019.6 |
| 20260902124431 | 67 | 263 | 0.0 | 0.0 | 0.00 | 0.00 | 0.00 | 91 | 1019.4 |
| 20260902123926 | 67 | 295 | 0.0 | 0.0 | 0.00 | 0.00 | 0.00 | 92 | 1019.4 |
| 20260902123423 | 66 | 268 | 0.0 | 0.0 | 0.00 | 0.00 | 0.00 | 93 | 1019.3 |
| 20260902122920 | 66 | 244 | 0.0 | 0.0 | 0.00 | 0.00 | 0.00 | 93 | 1019.2 |
| 20260902122417 | 66 | 288 | 0.0 | 0.0 | 0.00 | 0.00 | 0.00 | 93 | 1019.1 |
| 20260902121912 | 66 | 259 | 0.0 | 0.0 | 0.00 | 0.00 | 0.00 | 94 | 1019.4 |
| 20260902121407 | 66 | 189 | 0.0 | 0.0 | 0.00 | 0.00 | 0.00 | 95 | 1019.4 |
| 20260902120902 | 66 | 256 | 0.0 | 0.0 | 0.00 | 0.00 | 0.00 | 95 | 1019.2 |
| 20260902120358 | 66 | 326 | 0.0 | 0.0 | 0.00 | 0.00 | 0.00 | 95 | 1019.2 |
| 20260902115858 | 66 | 237 | 0.0 | 0.0 | 0.00 | 0.00 | 0.00 | 96 | 1019.3 |
| 20260902115354 | 66 | 338 | 0.0 | 0.0 | 0.00 | 0.00 | 0.00 | 97 | 1019.2 |
| 20260902114850 | 66 | 234 | 0.0 | 0.0 | 0.00 | 0.00 | 0.00 | 97 | 1019.4 |
| 20260902114345 | 66 | 203 | 0.0 | 0.0 | 0.00 | 0.00 | 0.00 | 97 | 1019.2 |
| 20260902113840 | 66 | 247 | 0.0 | 0.0 | 0.00 | 0.00 | 0.00 | 97 | 1019.3 |
| 20260902113336 | 66 | 273 | 0.0 | 0.0 | 0.00 | 0.00 | 0.00 | 97 | 1019.1 |
| 20260902112835 | 66 | 305 | 0.0 | 0.0 | 0.00 | 0.00 | 0.00 | 98 | 1019.1 |
| 20260902112332 | 66 | 276 | 0.0 | 0.0 | 0.00 | 0.00 | 0.00 | 98 | 1019.1 |
| 20260902111827 | 66 | 283 | 0.0 | 0.0 | 0.00 | 0.00 | 0.00 | 98 | 1019.2 |
| 20260902111324 | 67 | 292 | 0.0 | 0.0 | 0.00 | 0.00 | 0.00 | 98 | 1019.0 |
| 20260902110819 | 67 | 255 | 0.0 | 0.0 | 0.00 | 0.00 | 0.00 | 98 | 1018.7 |
| 20260902110315 | 67 | 278 | 0.0 | 0.0 | 0.00 | 0.00 | 0.00 | 98 | 1019.3 |
| 20260902105814 | 67 | 256 | 0.0 | 0.0 | 0.00 | 0.00 | 0.00 | 97 | 1019.1 |
| 20260902105309 | 67 | 202 | 0.0 | 0.0 | 0.00 | 0.00 | 0.00 | 97 | 1018.9 |
| 20260902104804 | 67 | 214 | 0.0 | 0.0 | 0.00 | 0.00 | 0.00 | 97 | 1018.9 |
| 20260902104301 | 67 | 286 | 0.0 | 0.0 | 0.00 | 0.00 | 0.00 | 98 | 1019.1 |
| 20260902103755 | 67 | 329 | 0.0 | 0.0 | 0.00 | 0.00 | 0.00 | 98 | 1018.9 |
| 20260902103254 | 67 | 284 | 0.0 | 0.0 | 0.00 | 0.00 | 0.00 | 98 | 1018.8 |
| 20260902102750 | 67 | 265 | 0.0 | 0.0 | 0.00 | 0.00 | 0.00 | 98 | 1018.9 |
| 20260902102248 | 66 | 289 | 0.0 | 0.0 | 0.00 | 0.00 | 0.00 | 98 | 1018.8 |
| 20260902101743 | 67 | 274 | 0.0 | 0.0 | 0.00 | 0.00 | 0.00 | 98 | 1018.5 |
| 20260902101238 | 66 | 175 | 0.0 | 0.0 | 0.00 | 0.00 | 0.00 | 98 | 1018.5 |
| 20260902100737 | 67 | 191 | 0.0 | 0.0 | 0.00 | 0.00 | 0.00 | 98 | 1018.6 |
| 20260902100232 | 66 | 253 | 0.0 | 0.0 | 0.00 | 0.00 | 0.00 | 98 | 1018.5 |
| 20260902095732 | 67 | 281 | 0.0 | 0.0 | 0.00 | 0.00 | 0.00 | 98 | 1018.5 |
| 20260902095226 | 67 | 283 | 0.0 | 0.0 | 0.00 | 0.00 | 0.00 | 98 | 1018.2 |
| 20260902094721 | 67 | 270 | 0.0 | 0.0 | 0.00 | 0.00 | 0.00 | 98 | 1018.2 |
| 20260902094217 | 67 | 197 | 0.0 | 0.0 | 0.00 | 0.00 | 0.00 | 98 | 1018.3 |
| 20260902093715 | 67 | 253 | 0.0 | 0.0 | 0.00 | 0.00 | 0.00 | 98 | 1018.3 |
| 20260902093211 | 67 | 204 | 0.0 | 0.0 | 0.00 | 0.00 | 0.00 | 98 | 1018.4 |
| 20260902092706 | 67 | 193 | 0.0 | 0.0 | 0.00 | 0.00 | 0.00 | 98 | 1018.4 |
| 20260902092201 | 67 | 302 | 0.0 | 0.0 | 0.00 | 0.00 | 0.00 | 98 | 1018.3 |
| 20260902091701 | 67 | 315 | 0.0 | 0.0 | 0.00 | 0.00 | 0.00 | 98 | 1018.3 |
| 20260902091158 | 67 | 193 | 0.0 | 0.0 | 0.00 | 0.00 | 0.00 | 99 | 1018.4 |
| 20260902090654 | 67 | 163 | 0.0 | 0.0 | 0.00 | 0.00 | 0.00 | 98 | 1018.1 |
| 20260902090152 | 67 | 245 | 0.0 | 0.0 | 0.00 | 0.00 | 0.00 | 98 | 1018.3 |
| 20260902085647 | 67 | 281 | 0.0 | 0.0 | 0.00 | 0.00 | 0.00 | 98 | 1018.2 |
| 20260902085142 | 67 | 191 | 0.0 | 0.0 | 0.00 | 0.00 | 0.00 | 98 | 1018.0 |
| 20260902084638 | 67 | 151 | 0.0 | 0.0 | 0.00 | 0.00 | 0.00 | 97 | 1018.3 |
| 20260902084134 | 67 | 168 | 0.0 | 0.0 | 0.00 | 0.00 | 0.00 | 96 | 1018.0 |
| 20260902083629 | 67 | 196 | 0.0 | 0.0 | 0.00 | 0.00 | 0.00 | 96 | 1018.1 |
| 20260902083128 | 67 | 145 | 0.0 | 0.0 | 0.00 | 0.00 | 0.00 | 96 | 1018.2 |
| 20260902082624 | 67 | 299 | 0.0 | 0.0 | 0.00 | 0.00 | 0.00 | 95 | 1018.1 |
| 20260902082120 | 67 | 288 | 0.0 | 0.0 | 0.00 | 0.00 | 0.00 | 95 | 1018.3 |
| 20260902081617 | 67 | 211 | 0.0 | 0.0 | 0.00 | 0.00 | 0.00 | 95 | 1017.8 |
| 20260902081116 | 67 | 275 | 0.0 | 0.0 | 0.00 | 0.00 | 0.00 | 95 | 1018.0 |
| 20260902080611 | 67 | 259 | 0.0 | 0.0 | 0.00 | 0.00 | 0.00 | 95 | 1017.9 |
| 20260902080108 | 67 | 286 | 0.0 | 0.0 | 0.00 | 0.00 | 0.00 | 95 | 1018.0 |
| 20260902075608 | 67 | 305 | 0.0 | 0.0 | 0.00 | 0.00 | 0.00 | 95 | 1017.9 |
| 20260902075104 | 67 | 270 | 0.0 | 0.0 | 0.00 | 0.00 | 0.00 | 96 | 1018.0 |
| 20260902074559 | 67 | 260 | 0.0 | 0.0 | 0.00 | 0.00 | 0.00 | 95 | 1017.8 |
| 20260902074054 | 67 | 163 | 0.0 | 0.0 | 0.00 | 0.00 | 0.00 | 96 | 1018.1 |
| 20260902073549 | 67 | 294 | 0.0 | 0.0 | 0.00 | 0.00 | 0.00 | 96 | 1017.7 |
| 20260902073045 | 67 | 327 | 0.0 | 0.0 | 0.00 | 0.00 | 0.00 | 96 | 1017.6 |
| 20260902072541 | 67 | 212 | 0.0 | 0.0 | 0.00 | 0.00 | 0.00 | 96 | 1017.7 |
| 20260902072038 | 67 | 172 | 0.0 | 0.0 | 0.00 | 0.00 | 0.00 | 96 | 1017.3 |
| 20260902071537 | 67 | 161 | 0.0 | 0.0 | 0.00 | 0.00 | 0.00 | 96 | 1017.5 |
| 20260902071034 | 67 | 288 | 0.0 | 0.0 | 0.00 | 0.00 | 0.00 | 96 | 1017.5 |
| 20260902070529 | 67 | 317 | 0.0 | 0.0 | 0.00 | 0.00 | 0.00 | 96 | 1017.6 |
| 20260902070023 | 67 | 125 | 0.0 | 0.0 | 0.00 | 0.00 | 0.00 | 96 | 1017.4 |
| 20260902065517 | 67 | 267 | 0.0 | 0.0 | 0.00 | 0.00 | 0.00 | 96 | 1017.5 |
| 20260902065013 | 67 | 286 | 0.0 | 0.0 | 0.00 | 0.00 | 0.00 | 96 | 1017.4 |
| 20260902064509 | 67 | 232 | 0.0 | 0.0 | 0.00 | 0.00 | 0.00 | 96 | 1017.3 |
| 20260902064004 | 67 | 326 | 0.0 | 0.0 | 0.00 | 0.00 | 0.00 | 96 | 1017.5 |
| 20260902063503 | 67 | 276 | 0.0 | 0.0 | 0.00 | 0.00 | 0.00 | 96 | 1017.6 |
| 20260902062959 | 67 | 158 | 0.0 | 0.0 | 0.00 | 0.00 | 0.00 | 96 | 1017.5 |
| 20260902062457 | 67 | 214 | 0.0 | 0.0 | 0.00 | 0.00 | 0.00 | 96 | 1017.6 |
| 20260902061952 | 67 | 213 | 0.0 | 0.0 | 0.00 | 0.00 | 0.00 | 96 | 1017.7 |
| 20260902061442 | 67 | 333 | 0.0 | 0.0 | 0.00 | 0.00 | 0.00 | 96 | 1017.7 |
| 20260902060938 | 67 | 283 | 0.0 | 0.0 | 0.00 | 0.00 | 0.00 | 97 | 1017.8 |
| 20260902060434 | 67 | 247 | 0.0 | 0.0 | 0.00 | 0.00 | 0.00 | 97 | 1017.7 |
| 20260902055930 | 67 | 322 | 0.0 | 0.0 | 0.00 | 0.00 | 0.00 | 96 | 1017.7 |
| 20260902055426 | 67 | 161 | 0.0 | 0.0 | 0.00 | 0.00 | 0.00 | 97 | 1018.0 |
| 20260902054921 | 67 | 226 | 0.0 | 0.0 | 0.00 | 0.00 | 0.00 | 96 | 1017.9 |
| 20260902054416 | 67 | 286 | 0.0 | 0.0 | 0.00 | 0.00 | 0.00 | 96 | 1017.9 |
| 20260902053911 | 67 | 250 | 0.0 | 0.0 | 0.00 | 0.00 | 0.00 | 96 | 1017.7 |
| 20260902053407 | 67 | 296 | 0.0 | 0.0 | 0.00 | 0.00 | 0.00 | 96 | 1018.0 |
| 20260902052905 | 68 | 272 | 0.0 | 0.0 | 0.00 | 0.00 | 0.00 | 96 | 1018.0 |
| 20260902052401 | 68 | 170 | 0.0 | 0.0 | 0.00 | 0.00 | 0.00 | 96 | 1018.0 |
| 20260902051856 | 68 | 182 | 0.0 | 0.0 | 0.00 | 0.00 | 0.00 | 96 | 1017.9 |
| 20260902051356 | 68 | 169 | 0.0 | 0.0 | 0.00 | 0.00 | 0.00 | 97 | 1018.0 |
| 20260902050850 | 68 | 269 | 0.0 | 0.0 | 0.00 | 0.00 | 0.00 | 97 | 1017.9 |
| 20260902050349 | 68 | 301 | 0.0 | 0.0 | 0.00 | 0.00 | 0.00 | 97 | 1017.9 |
| 20260902045844 | 68 | 285 | 0.0 | 0.0 | 0.00 | 0.00 | 0.00 | 97 | 1017.8 |
| 20260902045340 | 68 | 256 | 0.0 | 0.0 | 0.00 | 0.00 | 0.00 | 98 | 1017.6 |
| 20260902044836 | 68 | 334 | 0.0 | 0.0 | 0.00 | 0.00 | 0.00 | 97 | 1017.5 |
| 20260902044331 | 68 | 233 | 0.0 | 0.0 | 0.00 | 0.00 | 0.00 | 98 | 1017.7 |
| 20260902043827 | 68 | 285 | 0.0 | 0.0 | 0.00 | 0.00 | 0.00 | 98 | 1017.6 |
| 20260902043321 | 68 | 296 | 0.0 | 0.0 | 0.00 | 0.00 | 0.00 | 98 | 1017.6 |
| 20260902042821 | 68 | 234 | 0.0 | 0.0 | 0.00 | 0.00 | 0.00 | 98 | 1017.4 |
| 20260902042316 | 68 | 172 | 0.0 | 0.0 | 0.00 | 0.00 | 0.00 | 98 | 1017.4 |
| 20260902041811 | 68 | 225 | 0.0 | 0.0 | 0.00 | 0.00 | 0.00 | 99 | 1017.4 |
| 20260902041311 | 68 | 290 | 0.0 | 0.0 | 0.00 | 0.00 | 0.00 | 99 | 1017.5 |
| 20260902040809 | 68 | 127 | 0.0 | 0.0 | 0.00 | 0.00 | 0.00 | 99 | 1017.5 |
| 20260902040305 | 68 | 264 | 0.0 | 0.0 | 0.00 | 0.00 | 0.00 | 99 | 1017.5 |
| 20260902035804 | 68 | 293 | 0.0 | 0.0 | 0.00 | 0.00 | 0.00 | 99 | 1017.2 |
| 20260902035300 | 68 | 217 | 0.0 | 0.0 | 0.00 | 0.00 | 0.00 | 99 | 1017.0 |
| 20260902034758 | 67 | 327 | 0.0 | 0.0 | 0.00 | 0.00 | 0.00 | 99 | 1017.0 |
| 20260902034254 | 67 | 297 | 0.0 | 0.0 | 0.00 | 0.00 | 0.00 | 99 | 1016.7 |
| 20260902033752 | 67 | 185 | 0.0 | 0.0 | 0.00 | 0.00 | 0.00 | 99 | 1016.7 |
| 20260902033247 | 67 | 281 | 0.0 | 0.0 | 0.00 | 0.00 | 0.00 | 99 | 1016.5 |
| 20260902032745 | 67 | 287 | 0.0 | 0.0 | 0.00 | 0.00 | 0.00 | 99 | 1016.4 |
| 20260902032241 | 67 | 288 | 0.0 | 0.0 | 0.00 | 0.00 | 0.00 | 99 | 1016.3 |
| 20260902031740 | 67 | 336 | 0.0 | 0.0 | 0.00 | 0.00 | 0.00 | 99 | 1016.4 |
| 20260902031236 | 67 | 283 | 0.0 | 0.0 | 0.00 | 0.00 | 0.00 | 99 | 1016.3 |
| 20260902030731 | 67 | 20 | 0.0 | 0.0 | 0.00 | 0.00 | 0.00 | 99 | 1016.5 |
| 20260902030226 | 67 | 229 | 0.0 | 0.0 | 0.00 | 0.00 | 0.00 | 99 | 1016.6 |
| 20260902025725 | 67 | 275 | 0.0 | 0.0 | 0.00 | 0.29 | 0.29 | 99 | 1016.4 |
| 20260902025220 | 67 | 290 | 0.0 | 0.0 | 0.00 | 0.29 | 0.29 | 99 | 1016.5 |
| 20260902024715 | 67 | 301 | 0.0 | 0.0 | 0.00 | 0.29 | 0.29 | 99 | 1016.6 |
| 20260902024211 | 67 | 269 | 0.0 | 0.0 | 0.00 | 0.29 | 0.29 | 99 | 1016.6 |
| 20260902023706 | 67 | 262 | 0.0 | 0.0 | 0.00 | 0.29 | 0.29 | 99 | 1016.4 |
| 20260902023201 | 67 | 127 | 0.0 | 0.0 | 0.00 | 0.29 | 0.29 | 99 | 1016.5 |
| 20260902022701 | 67 | 251 | 0.0 | 0.0 | 0.00 | 0.29 | 0.29 | 99 | 1016.2 |
| 20260902022156 | 67 | 324 | 0.0 | 0.0 | 0.00 | 0.29 | 0.29 | 99 | 1016.4 |
| 20260902021652 | 67 | 312 | 0.0 | 0.0 | 0.00 | 0.29 | 0.29 | 99 | 1016.2 |
| 20260902021146 | 67 | 254 | 0.0 | 0.0 | 0.00 | 0.29 | 0.29 | 99 | 1015.8 |
| 20260902020642 | 67 | 248 | 0.0 | 0.0 | 0.00 | 0.29 | 0.29 | 99 | 1015.8 |
| 20260902020138 | 67 | 243 | 0.0 | 0.0 | 0.00 | 0.29 | 0.29 | 99 | 1015.8 |
| 20260902015633 | 67 | 248 | 0.0 | 0.0 | 0.00 | 0.29 | 0.29 | 99 | 1015.9 |
| 20260902015130 | 68 | 266 | 0.0 | 0.0 | 0.00 | 0.29 | 0.29 | 99 | 1015.4 |
| 20260902014625 | 68 | 294 | 0.0 | 0.0 | 0.00 | 0.29 | 0.29 | 99 | 1015.5 |
| 20260902014120 | 68 | 245 | 0.0 | 0.0 | 0.00 | 0.29 | 0.29 | 99 | 1015.3 |
| 20260902013620 | 68 | 278 | 0.0 | 0.0 | 0.00 | 0.29 | 0.29 | 99 | 1015.3 |
| 20260902013115 | 68 | 255 | 0.0 | 0.0 | 0.00 | 0.29 | 0.29 | 99 | 1015.2 |
| 20260902012611 | 68 | 241 | 0.0 | 0.0 | 0.00 | 0.29 | 0.29 | 99 | 1015.1 |
| 20260902012106 | 69 | 299 | 0.0 | 0.0 | 0.00 | 0.29 | 0.29 | 99 | 1014.9 |
| 20260902011602 | 69 | 162 | 0.0 | 0.0 | 0.00 | 0.29 | 0.29 | 99 | 1015.0 |
| 20260902011101 | 70 | 258 | 0.0 | 0.0 | 0.00 | 0.29 | 0.29 | 99 | 1014.6 |
| 20260902010601 | 70 | 230 | 0.0 | 0.0 | 0.00 | 0.29 | 0.29 | 99 | 1014.5 |
| 20260902010057 | 70 | 314 | 0.0 | 0.0 | 0.00 | 0.29 | 0.29 | 99 | 1014.4 |
| 20260902005554 | 70 | 180 | 0.0 | 0.0 | 0.00 | 0.29 | 0.29 | 99 | 1014.5 |
| 20260902005051 | 70 | 293 | 0.0 | 0.0 | 0.00 | 0.29 | 0.29 | 99 | 1014.4 |
| 20260902004550 | 71 | 253 | 0.0 | 0.0 | 0.00 | 0.29 | 0.29 | 99 | 1014.6 |
| 20260902004045 | 71 | 176 | 0.0 | 0.0 | 0.00 | 0.29 | 0.29 | 99 | 1014.5 |
| 20260902003541 | 71 | 182 | 0.0 | 0.0 | 0.00 | 0.29 | 0.29 | 99 | 1014.6 |
| 20260902003036 | 71 | 316 | 0.0 | 0.0 | 0.00 | 0.29 | 0.29 | 99 | 1014.3 |
| 20260902002532 | 71 | 206 | 0.0 | 0.0 | 0.00 | 0.29 | 0.29 | 99 | 1014.3 |
| 20260902002026 | 72 | 256 | 0.0 | 0.0 | 0.00 | 0.29 | 0.29 | 99 | 1014.4 |
| 20260902001521 | 72 | 207 | 0.0 | 0.0 | 0.00 | 0.29 | 0.29 | 99 | 1014.6 |
| 20260902001016 | 73 | 282 | 0.0 | 0.0 | 0.00 | 0.29 | 0.29 | 99 | 1014.6 |
| 20260902000511 | 73 | 215 | 0.0 | 0.0 | 0.00 | 0.29 | 0.29 | 99 | 1014.4 |
| 20260902000007 | 73 | 223 | 0.0 | 0.0 | 0.00 | 0.29 | 0.29 | 99 | 1014.3 |
| 20260901235501 | 74 | 302 | 0.0 | 0.0 | 0.00 | 0.29 | 0.29 | 99 | 1014.3 |
| 20260901234956 | 74 | 84 | 0.0 | 0.0 | 0.05 | 0.29 | 0.29 | 99 | 1014.3 |
| 20260901234450 | 74 | 63 | 0.0 | 0.0 | 0.05 | 0.29 | 0.29 | 99 | 1014.3 |
| 20260901233950 | 74 | 31 | 0.0 | 0.0 | 0.00 | 0.28 | 0.28 | 99 | 1014.2 |
| 20260901233445 | 74 | 97 | 0.0 | 0.0 | 0.00 | 0.28 | 0.28 | 99 | 1014.3 |
| 20260901232942 | 74 | 282 | 0.0 | 0.0 | 0.00 | 0.28 | 0.28 | 99 | 1013.9 |
| 20260901232436 | 74 | 272 | 0.0 | 0.0 | 0.07 | 0.28 | 0.28 | 99 | 1013.7 |
| 20260901231931 | 74 | 279 | 0.0 | 0.0 | 0.07 | 0.28 | 0.28 | 99 | 1014.4 |
| 20260901231428 | 74 | 294 | 0.0 | 0.0 | 0.00 | 0.27 | 0.27 | 99 | 1014.0 |
| 20260901230924 | 74 | 20 | 0.0 | 0.0 | 0.05 | 0.27 | 0.27 | 99 | 1014.1 |
| 20260901230423 | 74 | 51 | 0.0 | 0.0 | 0.05 | 0.27 | 0.27 | 99 | 1013.5 |
| 20260901225918 | 74 | 33 | 0.0 | 0.0 | 0.00 | 0.26 | 0.26 | 99 | 1013.8 |
| 20260901225413 | 74 | 232 | 0.0 | 0.0 | 0.00 | 0.26 | 0.26 | 99 | 1013.9 |
| 20260901224908 | 74 | 306 | 0.0 | 0.0 | 0.00 | 0.26 | 0.26 | 99 | 1013.9 |
| 20260901224404 | 74 | 101 | 0.0 | 0.0 | 0.00 | 0.26 | 0.26 | 99 | 1013.9 |
| 20260901223900 | 75 | 73 | 0.0 | 0.0 | 0.00 | 0.26 | 0.26 | 99 | 1014.0 |
| 20260901223355 | 74 | 93 | 0.0 | 0.0 | 0.07 | 0.26 | 0.26 | 99 | 1013.5 |
| 20260901222851 | 74 | 75 | 0.0 | 0.0 | 0.61 | 0.26 | 0.26 | 99 | 1013.4 |
| 20260901222347 | 74 | 29 | 0.0 | 0.0 | 0.97 | 0.25 | 0.25 | 99 | 1013.3 |
| 20260901221843 | 75 | 118 | 0.0 | 0.0 | 0.54 | 0.16 | 0.16 | 99 | 1013.6 |
| 20260901221338 | 76 | 22 | 0.0 | 0.0 | 0.19 | 0.10 | 0.10 | 96 | 1013.5 |
| 20260901220838 | 77 | 278 | 0.0 | 0.0 | 0.00 | 0.07 | 0.07 | 93 | 1013.3 |
| 20260901220337 | 77 | 9 | 0.0 | 0.0 | 0.00 | 0.07 | 0.07 | 91 | 1013.3 |
| 20260901215836 | 78 | 273 | 0.0 | 0.0 | 0.00 | 0.07 | 0.07 | 90 | 1013.3 |
| 20260901215335 | 78 | 347 | 0.0 | 0.0 | 0.00 | 0.07 | 0.07 | 89 | 1013.4 |
| 20260901214834 | 78 | 39 | 0.0 | 0.0 | 0.00 | 0.07 | 0.07 | 89 | 1013.4 |
| 20260901214333 | 78 | 282 | 0.0 | 0.0 | 0.00 | 0.07 | 0.07 | 89 | 1013.2 |
| 20260901213828 | 78 | 331 | 0.0 | 0.0 | 0.00 | 0.07 | 0.07 | 89 | 1013.5 |
| 20260901213328 | 79 | 285 | 0.0 | 0.0 | 0.00 | 0.07 | 0.07 | 88 | 1013.1 |
| 20260901212822 | 79 | 337 | 0.0 | 0.0 | 0.00 | 0.07 | 0.07 | 88 | 1013.4 |
| 20260901212318 | 80 | 264 | 0.0 | 0.0 | 0.00 | 0.07 | 0.07 | 87 | 1013.3 |
| 20260901211814 | 80 | 334 | 0.0 | 0.0 | 0.00 | 0.07 | 0.07 | 86 | 1013.0 |
| 20260901211310 | 81 | 272 | 0.0 | 0.0 | 0.00 | 0.07 | 0.07 | 85 | 1013.5 |